Concord, NH

12:42 PM EDT on August 20, 2017 (GMT -0400)
Concord Municipal

Weather History for KCON - April, 2014

Change the Weather History Date:

Friday, April 18, 2014

  Actual Average Record
Temperature  
Mean Temperature 33 °F 46 °F  
Max Temperature 47 °F 59 °F 92 °F (1976)
Min Temperature 19 °F 34 °F 18 °F (1874)
Degree Days  
Heating Degree Days 32 19  
Month to date heating degree days 397 402  
Since 1 July heating degree days 7080 6649  
Cooling Degree Days 0 0  
Month to date cooling degree days 0 0  
Year to date cooling degree days 0 0  
Moisture  
Dew Point 25 °F    
Average Humidity 69    
Maximum Humidity 92    
Minimum Humidity 45    
Precipitation  
Precipitation 0.00 in 0.12 in 1.27 in (1997)
Month to date precipitation 1.84 2.07  
Year to date precipitation 13.14 10.66  
Snow  
Snow 0.00 in 0.10 in 4.00 in (1887)
Month to date snowfall 0.2 2.4  
Since 1 July snowfall 80.4 61.0  
Snow Depth 0.00 in    
Sea Level Pressure  
Sea Level Pressure 30.48 in    
Wind  
Wind Speed 3 mph (SSE)    
Max Wind Speed 13 mph    
Max Gust Speed 16 mph    
Visibility 10 miles    
Events      
T = Trace of Precipitation, MM = Missing Value Source: NWS Daily Summary

Daily Weather History Graph

Daily Weather History Graph

Search for Another Location

Airport or City:

Trip Planner

Search our weather history database for the weather conditions in past years. The results will help you decide how hot, cold, wet, or windy it might be!

Date:

Astronomy

Apr. 18, 2014 Rise Set
Actual Time 5:59 AM EDT 7:32 PM EDT
Civil Twilight 5:29 AM EDT 8:02 PM EDT
Nautical Twilight 4:53 AM EDT 8:38 PM EDT
Astronomical Twilight 4:14 AM EDT 9:17 PM EDT
Moon 11:18 PM EDT (4/18) 8:14 AM EDT (4/18)
Length of Visible Light 14h 33m
Length of Day
13h 33m
Waning Gibbous, 87% of the Moon is Illuminated
Apr 18
Waning Gibbous
Apr 22
Last Quarter
Apr 29
New
May 6
First Quarter
May 14
Full

Hourly Weather History & Observations

Time (EDT) Temp. Windchill Dew Point Humidity Pressure Visibility Wind Dir Wind Speed Gust Speed Precip Events Conditions
12:51 AM 25.0 °F - 19.9 °F 81% 30.67 in 10.0 mi Calm Calm - N/A   Clear
1:51 AM 23.0 °F - 19.9 °F 88% 30.66 in 10.0 mi Calm Calm - N/A   Clear
2:51 AM 25.0 °F - 21.0 °F 85% 30.66 in 10.0 mi Calm Calm - N/A   Clear
3:51 AM 21.9 °F - 19.0 °F 89% 30.65 in 10.0 mi Calm Calm - N/A   Clear
4:51 AM 19.9 °F - 18.0 °F 92% 30.64 in 10.0 mi Calm Calm - N/A   Clear
5:51 AM 21.0 °F - 18.0 °F 88% 30.60 in 10.0 mi Calm Calm - N/A   Clear
6:51 AM 21.0 °F - 19.0 °F 92% 30.57 in 10.0 mi Calm Calm - N/A   Clear
7:51 AM 28.9 °F - 24.1 °F 82% 30.57 in 10.0 mi Calm Calm - N/A   Clear
8:51 AM 35.1 °F 31.0 °F 24.1 °F 64% 30.58 in 10.0 mi West 4.6 mph - N/A   Scattered Clouds
9:09 AM 34.0 °F - 24.1 °F 67% 30.57 in 10.0 mi Calm Calm - N/A   Mostly Cloudy
9:51 AM 37.9 °F - 25.0 °F 60% 30.60 in 10.0 mi Calm Calm - N/A   Overcast
10:48 AM 39.2 °F 33.6 °F 26.6 °F 61% 30.54 in 10.0 mi South 8.1 mph - N/A   Mostly Cloudy
10:51 AM 41.0 °F 38.0 °F 26.6 °F 57% 30.54 in 10.0 mi SSW 4.6 mph - N/A   Mostly Cloudy
11:51 AM 45.0 °F 41.8 °F 26.1 °F 48% 30.52 in 10.0 mi Variable 5.8 mph - N/A   Partly Cloudy
12:51 PM 44.1 °F - 26.1 °F 49% 30.47 in 10.0 mi Calm Calm - N/A   Clear
1:51 PM 46.0 °F 43.9 °F 26.1 °F 46% 30.45 in 10.0 mi Variable 4.6 mph - N/A   Clear
2:51 PM 46.0 °F 43.1 °F 26.1 °F 46% 30.42 in 10.0 mi Variable 5.8 mph - N/A   Clear
3:51 PM 46.9 °F - 26.1 °F 44% 30.38 in 10.0 mi SE 9.2 mph - N/A   Clear
4:51 PM 46.0 °F 41.9 °F 26.1 °F 46% 30.35 in 10.0 mi SE 8.1 mph - N/A   Clear
5:51 PM 45.0 °F 41.2 °F 27.0 °F 49% 30.32 in 10.0 mi SE 6.9 mph - N/A   Clear
6:51 PM 42.1 °F 37.7 °F 28.0 °F 58% 30.31 in 10.0 mi SE 6.9 mph - N/A   Clear
7:51 PM 37.9 °F 33.5 °F 28.0 °F 68% 30.30 in 10.0 mi SE 5.8 mph - N/A   Clear
8:51 PM 36.0 °F 31.1 °F 28.0 °F 73% 30.29 in 10.0 mi SSE 5.8 mph - N/A   Clear
9:51 PM 35.1 °F - 28.9 °F 78% 30.28 in 10.0 mi Calm Calm - N/A   Clear
10:51 PM 35.1 °F - 28.9 °F 78% 30.27 in 10.0 mi Calm Calm - N/A   Partly Cloudy
11:51 PM 33.8 °F - 28.4 °F 81% 30.25 in 10.0 mi Calm Calm - N/A   Clear